RH
76 77 74 70 67 67 70 75 80 85 90 92 90 85 79 74 74 77 81 83 83 83 82 82 80 78 73 70 70 69 64 58 56 57 58 59 60 61 62 60 55 51 51 54 69 95 109 105 102 103 102 101 101 100 100 100 100 99 100 101 99 99 101 103 105 106 103 100 101 102 101 101 100 101 103 101 100 101 100 101 101 101 100 100 101
79 82 84 83 81 78 75 73 75 78 83 88 91 92 89 83 77 75 78 82 84 84 84 85 86 85 81 77 76 75 72 68 63 59 58 59 60 58 59 61 59 55 54 52 53 66 87 103 109 106 103 103 103 101 99 100 101 100 101 101 100 101 100 100 101 103 102 101 102 101 100 100 100 100 101 100 100 102 102 102 101 101 101 101 103
81 83 85 87 86 85 83 80 79 78 80 82 87 92 95 94 87 80 75 76 81 84 86 87 87 88 87 84 81 79 77 73 71 67 61 59 60 60 60 60 59 58 55 53 52 53 60 79 99 106 106 104 103 103 102 102 101 100 102 102 99 100 100 99 99 100 100 99 100 100 99 101 101 100 101 102 101 101 101 101 100 101 101 100 101
86 88 90 90 90 88 87 87 85 84 83 83 83 84 87 91 92 90 85 80 78 80 85 88 87 87 87 86 84 83 80 75 73 73 70 66 63 62 62 61 59 59 58 55 54 54 53 58 71 88 103 108 107 104 103 102 101 100 102 103 101 100 101 100 100 101 99 98 98 98 99 100 100 101 103 104 101 100 101 101 100 100 101 100 100
89 91 93 94 95 94 94 94 93 92 91 89 88 87 86 87 90 93 94 92 86 82 81 84 86 85 84 84 83 82 81 78 73 71 73 74 72 68 65 63 61 60 60 58 56 55 54 53 56 65 83 98 104 105 103 100 101 103 102 102 102 101 101 100 100 101 100 100 99 98 99 100 101 104 105 104 101 101 102 101 101 100 101 100 99
89 92 94 96 98 100 101 100 100 100 98 97 97 97 96 94 92 91 91 91 90 87 81 79 80 80 80 80 79 78 77 77 74 70 70 72 75 75 71 66 62 60 60 59 57 56 55 53 53 55 62 75 88 99 105 103 100 102 104 104 103 100 100 101 100 101 101 101 101 100 100 101 102 103 102 101 102 105 105 101 101 101 102 102 100
77 81 84 86 89 92 96 97 98 98 97 97 96 95 96 96 96 94 90 87 84 82 79 76 74 73 74 76 77 76 74 74 73 70 68 69 71 74 74 71 66 61 60 58 56 56 56 55 53 52 54 60 68 80 95 104 103 101 102 104 103 101 101 100 100 102 102 100 101 102 101 100 101 101 100 100 100 104 105 103 104 103 102 102 100
65 68 70 72 75 78 82 85 87 90 91 92 92 91 91 90 90 91 91 89 85 80 75 73 71 70 70 70 71 73 73 72 71 69 68 67 68 70 71 71 70 66 62 59 57 55 55 55 53 52 53 54 57 62 73 86 95 101 104 102 101 103 104 103 102 102 101 101 103 103 100 100 101 100 100 101 100 101 102 101 103 103 102 102 101
57 61 63 64 66 69 73 76 79 83 85 88 88 88 88 86 83 82 83 85 86 84 78 73 69 67 66 65 64 64 67 68 68 68 68 67 66 68 68 68 69 68 66 62 58 56 54 52 51 51 53 54 54 55 58 66 75 87 100 103 103 104 102 101 102 101 100 103 104 101 99 100 100 100 100 101 100 100 101 100 101 101 101 101 102
50 53 55 58 60 62 65 66 68 71 73 75 76 77 78 77 76 75 74 74 77 79 79 75 70 65 63 62 60 58 59 62 65 66 67 68 67 66 66 67 67 68 68 66 62 59 56 53 50 48 50 54 55 54 54 56 59 67 81 94 103 108 104 100 100 102 102 104 104 99 100 102 100 99 101 103 102 100 101 101 100 101 101 100 100
46 48 51 53 54 56 58 58 58 58 60 61 62 63 64 64 65 66 66 67 67 68 70 72 70 67 63 59 58 56 55 56 60 64 65 67 67 66 65 64 65 67 67 67 65 62 59 56 53 49 46 48 53 56 55 55 55 56 62 72 85 97 103 103 103 102 101 102 104 102 102 103 100 99 101 103 102 99 101 102 100 100 101 100 100
36 39 41 42 43 43 45 46 47 46 47 48 50 52 52 53 54 55 57 59 61 62 63 65 66 68 67 63 59 56 54 54 56 59 62 64 65 65 65 62 61 63 64 66 65 65 62 59 56 53 49 46 47 53 57 57 57 55 54 57 64 74 85 94 100 105 104 101 102 102 103 103 101 101 101 101 100 99 101 101 100 100 100 100 100
18 21 24 26 28 28 29 30 32 33 35 36 37 39 41 43 45 48 50 52 55 58 60 62 63 65 67 67 65 59 55 54 54 55 57 60 62 63 63 61 59 57 58 60 62 63 63 61 58 55 52 49 46 48 51 55 57 57 55 55 56 58 65 73 82 94 100 101 103 103 102 101 100 102 103 101 100 100 101 101 100 100 101 101 100
8 9 11 13 15 17 19 20 22 24 26 27 28 29 31 34 36 39 42 45 49 52 55 59 61 62 64 66 67 64 59 55 52 52 53 55 57 60 62 61 59 56 53 52 54 57 59 60 60 57 55 52 49 48 48 50 52 55 57 58 58 56 56 59 64 72 80 88 97 103 104 102 100 101 103 102 101 101 101 101 100 100 101 101 99
7 7 7 8 9 10 12 15 17 19 21 22 23 25 26 28 29 32 34 36 39 43 46 51 55 58 61 64 65 66 64 60 55 52 51 52 54 57 60 61 60 58 54 50 47 47 50 53 56 57 57 55 51 48 48 48 48 49 52 55 60 62 59 57 57 59 63 69 77 86 95 100 102 103 104 102 100 102 103 102 101 102 102 101 99
8 8 8 7 7 7 8 10 12 14 16 17 19 21 23 25 26 28 30 31 33 35 38 41 45 49 53 58 62 65 67 66 63 58 54 53 54 56 58 60 60 59 57 54 48 44 42 43 46 49 52 55 54 50 48 47 47 47 48 48 54 61 64 63 60 57 57 58 62 67 73 82 90 97 103 103 101 102 103 101 102 103 103 102 100
7 7 8 7 7 7 7 7 8 9 11 12 14 16 18 20 22 25 27 28 30 32 35 36 39 41 44 48 52 58 64 68 70 68 64 59 58 58 59 60 61 60 58 56 53 48 43 40 39 39 41 45 49 50 49 47 45 45 46 46 47 52 59 64 65 64 61 57 56 57 60 65 71 77 85 92 97 101 103 101 101 102 102 103 102
4 5 5 6 6 6 6 7 7 7 8 9 9 10 12 14 16 18 21 24 26 27 29 31 33 34 36 39 42 46 51 57 64 68 69 67 63 61 60 61 60 60 59 57 55 52 48 43 39 35 34 35 38 42 45 47 45 43 43 45 46 47 50 55 61 65 68 66 61 57 56 57 60 63 67 72 78 86 91 95 100 102 103 103 102
3 3 3 4 4 4 5 5 6 7 7 8 8 8 9 10 11 12 15 18 20 22 22 23 24 26 27 29 33 36 39 43 48 54 61 65 65 63 61 59 59 59 58 57 56 54 51 48 44 38 34 32 32 33 36 40 42 42 41 41 44 46 47 48 52 58 64 69 70 67 64 61 59 59 58 59 62 67 72 78 85 91 95 97 99
3 3 3 3 3 4 4 4 5 5 6 6 7 7 8 8 9 10 11 12 14 16 17 18 18 19 20 21 22 25 29 33 35 39 44 50 56 59 59 57 56 56 56 57 57 54 52 49 47 44 39 34 33 33 32 33 36 38 39 40 42 45 46 47 49 52 56 61 65 67 70 72 72 70 65 60 55 55 58 63 68 73 77 82 87
4 4 4 4 4 4 4 4 4 4 5 5 5 6 6 7 8 9 9 10 11 12 12 13 13 14 15 16 16 16 17 21 25 28 31 35 40 46 50 52 52 51 50 52 55 56 54 51 48 47 44 40 37 36 35 34 34 34 36 38 40 43 45 46 48 50 52 55 57 59 64 70 76 81 83 80 72 62 55 53 55 60 64 68 72
4 4 4 4 4 4 4 4 4 4 5 5 5 5 5 5 6 7 8 9 9 10 10 10 11 12 12 12 13 13 12 12 14 17 20 25 28 31 36 42 47 48 47 46 48 51 54 54 52 49 47 44 41 39 39 39 38 36 35 36 38 40 42 44 46 49 52 53 55 55 57 60 65 72 80 89 92 88 77 66 57 53 55 58 62
4 4 4 4 5 5 5 4 4 4 4 4 5 5 5 5 5 5 6 7 7 7 7 8 8 10 11 12 12 12 12 12 12 12 12 15 18 21 23 28 35 40 43 43 42 43 47 51 54 54 52 49 46 42 41 41 42 42 39 38 37 38 39 40 43 48 51 54 56 56 56 57 58 60 65 73 85 94 95 90 80 69 63 60 60
4 4 5 5 5 5 4 4 4 4 4 4 4 4 4 5 5 5 5 6 6 6 5 5 6 6 7 9 11 12 12 13 13 13 12 12 12 14 16 18 22 27 32 37 38 39 40 43 47 53 56 56 53 48 44 42 42 44 44 42 40 38 38 38 40 44 48 54 57 59 60 60 59 58 57 60 68 78 88 92 92 89 83 77 74
4 5 5 5 5 4 4 5 4 4 5 5 5 5 4 4 5 5 6 6 6 6 5 5 5 5 5 5 6 8 9 11 12 13 13 13 12 12 12 14 16 18 21 25 29 33 36 38 40 43 49 55 59 57 53 47 44 44 45 47 45 42 40 38 38 40 43 48 52 57 62 65 65 60 57 57 60 67 76 83 88 91 92 90 86
4 4 5 4 4 5 4 4 4 4 5 5 5 5 5 5 5 5 5 6 6 6 6 6 5 5 5 5 5 5 6 7 8 9 11 12 13 13 13 13 13 15 17 19 20 23 27 32 36 37 40 45 52 57 59 57 52 47 46 47 49 48 46 43 41 40 40 42 44 48 54 62 65 63 59 59 60 63 68 76 82 87 92 95 94
4 4 4 4 5 5 5 4 4 4 5 5 5 5 5 5 5 5 5 5 5 6 6 6 6 6 5 5 5 5 5 5 5 6 7 9 10 11 12 13 13 14 16 18 20 20 20 23 28 33 35 37 41 47 53 57 58 55 51 50 50 50 50 48 47 45 43 41 41 42 44 50 55 58 59 60 62 63 65 70 77 82 88 94 97
4 4 4 4 4 4 4 4 4 4 4 4 5 5 5 5 5 5 5 5 5 5 5 5 6 6 6 6 5 5 5 5 5 5 6 6 7 8 9 10 11 13 15 17 19 22 22 21 22 26 30 32 34 37 42 48 53 56 56 55 53 52 52 51 50 49 48 46 43 42 42 43 45 48 52 55 58 60 63 67 72 77 81 84 88
4 4 4 3 4 4 4 4 4 4 4 4 4 5 5 5 5 5 5 5 5 5 5 5 5 6 6 6 6 5 5 5 5 5 5 5 6 6 7 8 9 11 12 14 15 19 24 26 25 24 26 28 30 31 34 38 43 48 52 53 54 54 54 54 53 52 51 49 47 45 44 43 43 43 44 46 48 50 53 58 64 72 78 80 80
4 4 4 4 4 4 4 3 3 3 3 3 4 4 4 4 4 5 5 5 5 5 5 5 5 5 6 6 6 6 5 5 5 5 5 5 5 6 6 6 7 8 10 11 12 13 17 24 28 29 28 28 29 30 30 31 33 37 41 46 50 53 54 55 55 56 55 54 52 50 48 46 45 44 44 44 44 44 44 46 50 58 66 70 73
4 4 4 4 4 4 4 3 3 3 3 3 3 3 4 4 4 4 4 4 4 5 4 5 5 4 5 5 6 6 6 6 5 5 5 5 5 5 6 6 6 7 8 9 9 10 12 15 22 28 31 31 31 31 31 31 30 30 31 36 42 48 52 54 54 56 57 58 57 56 54 52 49 47 45 45 45 45 44 43 43 44 48 52 56
5 5 4 4 4 4 4 4 3 4 3 3 3 3 3 3 3 3 3 4 4 4 4 4 4 4 4 5 5 5 6 6 5 5 5 5 5 5 6 6 6 7 7 7 7 8 10 11 13 19 26 31 34 34 33 33 32 31 29 29 33 38 45 50 53 55 57 57 58 58 57 57 56 54 51 49 47 46 45 45 44 43 42 41 42
5 5 5 5 5 4 4 4 4 4 4 4 3 4 3 3 3 3 3 3 3 3 4 4 4 4 4 4 4 4 5 5 5 5 4 4 4 5 5 6 6 6 6 7 7 7 8 9 10 12 15 22 29 33 35 35 34 33 31 30 30 32 35 40 46 51 55 57 58 58 58 58 59 59 58 56 54 51 48 47 46 45 44 42 40
4 4 5 4 4 4 4 4 4 4 4 4 4 4 4 4 3 3 3 3 3 3 3 3 4 4 4 4 4 4 4 5 4 4 4 4 4 4 5 5 5 6 6 5 6 6 6 7 8 9 10 13 18 24 29 32 34 35 35 33 32 32 32 34 37 42 47 53 56 58 59 60 60 60 60 59 59 58 56 53 49 46 45 42 40
4 4 5 4 4 4 4 4 4 4 4 4 4 4 4 4 4 4 3 3 3 3 3 3 3 3 4 4 4 4 4 4 4 4 4 4 4 4 4 5 5 5 5 5 5 5 6 6 6 7 8 10 11 14 18 22 26 31 35 36 36 35 34 34 35 37 40 44 49 52 55 58 61 62 61 60 59 59 58 57 54 52 49 46 43
4 4 4 5 4 4 4 4 4 4 4 4 4 4 4 4 3 3 3 3 3 3 3 3 3 3 3 3 4 4 4 4 4 4 4 4 4 4 4 4 4 5 5 5 5 5 5 5 6 6 7 8 9 10 11 14 17 21 25 31 37 40 40 38 37 36 37 39 41 43 47 52 56 58 60 61 60 58 56 55 54 53 52 51 48
4 4 4 4 4 4 4 4 4 4 4 4 4 4 4 4 4 4 4 3 3 3 3 3 3 3 3 3 3 4 4 4 4 3 4 4 4 4 4 4 4 5 5 6 6 5 5 5 5 6 6 7 7 8 8 10 12 14 16 20 26 34 41 45 44 42 39 37 37 38 40 44 48 52 55 56 56 55 53 53 52 52 52 51 50
4 4 4 4 4 4 4 4 4 4 4 4 4 4 4 4 5 4 4 4 4 4 4 3 3 3 3 3 3 3 3 4 4 3 3 3 3 4 4 4 5 5 5 6 6 6 6 6 6 6 6 7 7 7 8 8 8 10 12 14 17 21 28 36 44 47 46 43 40 39 38 39 41 45 48 49 49 49 48 49 50 51 51 50 49
4 4 5 5 4 4 4 4 5 5 4 4 4 5 5 5 5 5 4 4 4 4 4 4 4 4 4 3 3 3 3 3 4 4 3 3 3 4 4 4 5 5 5 5 6 7 7 7 7 7 6 7 8 7 8 8 8 8 9 10 13 15 17 22 29 38 44 48 47 46 43 42 41 41 43 44 44 45 45 47 50 51 52 53 54
5 4 5 5 4 4 4 5 5 5 5 5 5 5 5 5 5 5 5 4 4 4 4 4 4 4 4 4 4 3 3 3 3 3 4 4 3 4 4 4 5 5 5 5 5 6 7 7 8 8 7 7 8 8 8 8 8 8 8 9 10 12 14 16 19 24 31 38 43 46 47 47 46 45 44 43 42 43 45 47 50 53 55 57 59
4 4 5 5 5 4 4 4 5 5 5 5 5 5 5 5 5 5 5 5 5 4 4 4 4 4 4 4 4 4 3 3 3 3 4 4 4 4 4 4 5 5 5 5 5 5 6 6 7 8 9 9 8 8 8 9 9 8 9 9 9 10 11 13 15 17 21 25 30 35 40 42 44 44 45 44 44 45 45 46 48 52 56 58 59
4 4 4 5 5 4 4 4 5 5 5 5 5 5 5 5 5 5 5 5 5 5 5 4 4 4 4 4 4 4 4 4 4 4 4 4 4 4 4 4 4 5 5 5 5 5 5 6 6 7 9 9 10 10 9 9 9 9 9 9 10 10 10 11 12 15 17 20 22 24 28 31 34 37 39 41 43 44 44 44 45 47 50 51 53
5 5 5 5 5 5 5 5 5 5 5 5 5 5 5 5 5 5 5 6 5 5 5 5 4 4 4 4 4 4 4 4 4 4 4 4 4 4 4 5 4 5 5 5 5 5 5 6 6 6 7 9 10 10 10 10 10 9 9 9 9 10 10 11 12 13 14 16 18 20 22 23 25 28 31 34 37 39 40 40 41 43 44 44 45
5 6 5 5 6 5 5 5 5 5 5 5 5 5 5 5 5 5 5 5 6 6 5 5 5 5 4 4 4 4 4 4 4 4 4 4 4 4 4 5 5 5 5 5 5 6 6 6 6 6 7 7 8 9 10 11 11 10 10 9 9 9 10 10 11 12 12 13 14 16 17 19 21 23 25 27 30 32 33 34 36 38 39 40 42
6 6 6 6 6 6 6 5 5 5 5 5 5 5 5 5 5 5 5 5 5 5 5 5 5 5 5 5 4 4 4 4 4 4 4 4 5 5 5 5 5 5 5 5 5 5 6 6 6 6 6 7 7 8 9 10 11 11 11 11 10 10 10 10 10 11 11 12 12 13 13 15 16 18 20 22 24 26 28 29 32 34 35 37 41
5 5 6 6 6 6 6 6 5 5 5 5 5 5 5 5 5 5 5 5 5 5 5 5 5 5 5 5 5 5 5 5 4 4 5 4 5 5 5 5 5 5 5 5 6 6 6 6 6 6 7 7 7 7 8 9 10 11 12 12 12 12 11 11 11 11 11 11 11 11 12 12 13 14 16 18 19 21 22 24 26 29 31 33 36
5 5 5 6 6 6 6 6 5 5 5 5 5 5 5 5 5 5 5 5 5 5 5 5 5 5 5 5 5 5 5 5 5 5 5 5 5 5 5 5 5 5 5 5 6 6 6 6 6 6 6 7 7 7 7 7 8 9 10 12 13 14 14 13 13 13 12 11 11 11 11 11 12 12 13 14 15 16 17 19 21 23 26 28 29
5 6 5 6 6 6 6 6 6 5 5 5 5 5 5 5 5 5 5 5 5 5 5 5 5 5 5 5 5 5 5 5 5 5 5 5 5 5 5 5 5 5 5 5 5 6 6 6 6 6 6 7 7 7 7 8 8 8 9 10 11 13 14 15 16 16 14 13 13 13 13 12 12 12 12 12 13 13 14 15 16 18 20 21 22
6 6 6 6 6 6 6 6 5 5 5 5 5 5 5 5 5 5 5 5 5 5 5 5 5 5 5 5 5 5 5 5 5 5 5 5 5 5 6 6 6 6 6 5 5 5 6 6 6 6 6 7 7 7 8 8 8 8 8 9 9 11 12 14 16 17 16 15 15 15 15 14 14 14 14 14 13 13 13 14 14 15 15 16 16
6 6 6 5 5 5 5 5 5 5 5 5 5 5 5 5 5 5 5 5 5 5 5 5 5 5 5 5 5 5 5 5 5 5 5 5 5 6 6 6 6 6 6 6 6 6 6 6 6 6 6 6 7 8 8 8 8 9 9 8 8 9 10 12 14 15 16 15 16 16 16 16 15 15 16 16 15 15 15 15 15 15 15 15 15
6 6 6 6 6 5 5 5 5 5 5 5 6 5 5 5 5 5 6 5 5 5 5 5 5 5 5 5 5 5 6 5 5 5 5 5 5 5 6 6 6 7 7 7 7 7 7 7 6 6 6 7 7 7 8 9 9 9 9 9 9 9 9 10 11 12 13 13 14 15 16 16 16 16 16 16 16 16 16 16 16 16 16 16 16
Wind_Speed
75 75 75 74 74 74 75 75 76 78 79 80 81 81 80 79 78 78 78 78 79 79 79 79 79 79 78 76 75 77 79 80 81 82 83 85 87 90 93 95 96 96 98 101 104 108 111 110 110 110 111 112 113 114 113 110 108 107 106 105 104 104 104 104 103 104 104 104 105 105 106 107 109 109 109 107 106 105 105 105 104 102 100 100 100
78 78 78 79 79 79 79 80 80 80 81 82 83 84 84 83 82 81 80 80 81 81 82 82 81 81 81 80 79 78 80 81 82 83 84 86 88 90 91 93 95 97 98 100 103 107 111 112 113 114 114 114 115 115 115 114 113 112 112 111 109 108 107 107 107 107 107 107 108 108 107 106 107 107 107 107 107 108 109 108 108 106 105 104 105
81 81 82 83 83 83 84 84 84 84 84 84 84 85 86 87 86 86 84 83 83 83 84 84 84 83 83 84 83 82 82 83 84 85 86 87 88 89 90 92 95 96 98 100 101 105 108 112 115 117 117 117 117 117 116 116 116 116 116 116 114 112 111 110 110 111 111 111 110 109 108 108 108 106 106 105 107 108 110 109 109 108 107 106 106
84 85 86 87 88 88 88 88 88 89 88 88 88 88 88 89 89 90 89 88 87 86 86 87 87 86 86 86 86 86 86 86 85 86 88 88 89 90 91 92 94 95 98 99 100 103 106 110 114 117 119 119 119 119 118 117 117 118 119 119 118 117 115 114 114 114 114 113 113 112 112 111 110 109 110 109 109 108 108 108 108 108 107 106 106
88 90 91 91 92 92 92 92 93 93 93 93 93 93 92 92 92 93 93 93 92 91 90 89 89 89 89 88 88 89 89 89 88 88 89 89 91 92 93 93 94 95 97 99 100 102 105 108 111 115 118 121 122 121 120 119 119 119 120 120 120 121 121 120 118 118 117 116 115 115 114 114 113 114 115 114 112 111 110 110 109 108 108 108 107
93 94 95 95 96 96 97 97 98 98 97 97 97 98 98 97 97 97 97 97 96 95 94 92 91 91 91 91 91 91 91 92 91 91 91 91 92 94 95 95 96 96 98 99 101 102 104 107 110 112 116 120 122 123 123 122 121 122 122 123 123 123 123 122 121 121 121 120 119 118 117 116 116 117 117 116 115 115 114 114 113 112 111 110 110
96 97 98 99 99 99 100 101 101 102 102 101 101 101 101 101 101 100 100 99 99 98 97 96 94 93 93 93 92 92 92 93 94 93 93 93 94 96 97 97 98 98 99 100 101 102 104 107 109 110 113 117 121 123 125 125 125 124 125 126 126 125 124 122 122 123 124 124 123 123 122 120 119 118 118 117 117 117 117 117 116 116 115 114 113
99 100 101 101 102 102 103 103 104 104 104 104 104 104 104 104 104 104 103 102 101 100 99 98 97 96 95 95 94 94 94 94 95 95 95 95 96 97 98 99 100 100 101 102 102 103 105 107 108 109 110 113 118 121 124 126 127 127 127 128 128 128 127 126 125 125 125 125 126 126 125 124 123 122 121 120 119 119 119 119 118 118 118 117 117
102 102 103 104 104 105 105 106 106 107 107 107 107 107 107 107 106 106 106 106 105 103 102 101 100 99 98 98 97 96 95 95 96 96 96 96 97 98 99 100 101 102 103 104 104 105 106 107 108 109 109 111 114 118 122 125 127 128 129 130 130 130 130 129 129 128 127 127 128 127 127 126 125 124 124 123 123 122 122 122 122 122 121 121 120
102 103 104 105 105 106 107 107 108 109 109 109 109 109 109 109 108 108 108 108 107 106 105 104 103 102 101 100 99 97 97 96 96 96 96 96 97 98 99 100 101 103 104 106 106 107 107 108 109 109 109 110 112 114 117 121 125 126 128 131 132 132 132 132 131 131 131 131 130 129 128 127 126 125 126 126 126 126 126 126 126 126 125 124 124
101 102 104 105 106 106 107 108 108 109 109 109 109 109 109 109 109 109 108 108 108 108 108 107 105 104 103 102 100 99 98 97 97 96 97 97 97 97 99 100 101 103 105 107 108 108 109 110 110 110 110 110 111 112 114 117 120 124 127 130 132 133 134 134 134 133 133 133 133 132 131 129 128 127 127 128 128 128 128 128 129 129 128 128 127
99 102 103 105 106 107 107 108 108 109 109 109 109 109 109 109 109 108 108 108 108 108 108 108 107 107 105 104 103 101 99 98 98 97 97 97 98 98 99 100 101 103 105 107 109 110 111 111 111 111 111 111 110 112 113 115 117 119 123 126 129 132 134 136 136 136 136 135 135 135 134 133 132 130 129 128 129 129 129 130 130 130 130 130 130
96 98 101 103 105 106 107 107 108 108 109 109 109 109 108 108 108 108 108 108 108 108 108 108 108 108 108 107 105 104 102 101 100 99 99 99 99 99 99 100 101 102 104 107 109 110 112 113 113 113 113 113 112 112 113 115 116 117 118 121 124 128 132 134 136 137 137 137 137 137 137 136 135 133 132 131 131 131 130 130 131 131 131 131 132
94 95 97 99 101 102 104 105 106 107 108 109 109 109 109 108 108 108 107 107 107 107 108 108 108 109 109 109 108 107 105 104 103 102 102 101 101 100 101 101 101 102 104 106 108 110 112 114 114 114 114 114 114 114 114 115 116 117 117 118 119 122 127 130 133 136 137 138 138 139 138 138 137 137 136 135 134 134 133 132 133 133 133 133 133
93 94 95 96 97 98 99 100 102 104 106 107 108 109 109 109 108 108 108 108 108 108 108 108 108 109 109 110 110 110 109 107 106 105 104 104 103 102 102 102 102 102 104 105 107 109 111 113 114 115 116 117 116 116 116 116 117 117 118 118 118 119 122 125 128 132 134 136 138 139 139 139 139 139 139 138 137 136 136 136 136 135 135 134 134
92 93 94 95 96 95 96 96 98 101 102 104 105 106 107 108 108 109 109 109 109 109 109 109 109 110 110 110 111 111 111 110 109 107 106 106 106 105 104 104 103 103 103 104 106 107 109 111 113 115 117 118 119 118 117 118 118 118 118 118 118 119 120 121 123 126 129 132 135 137 138 139 140 141 141 140 140 139 139 139 138 138 137 137 136
89 91 92 94 95 94 94 95 96 97 99 100 102 104 105 106 107 108 109 109 109 110 110 111 111 111 111 111 112 112 112 112 112 110 109 108 107 107 106 105 104 104 104 104 105 106 108 109 111 113 115 118 120 120 120 119 119 119 119 119 119 119 120 121 122 122 124 126 129 132 134 136 138 140 141 141 141 141 141 140 140 140 140 140 139
86 87 88 90 91 92 92 93 94 95 96 98 100 102 103 104 105 106 107 108 109 110 111 112 112 113 113 113 113 113 113 113 113 113 112 110 109 108 108 107 106 105 105 105 105 106 106 107 109 111 113 115 118 120 121 122 121 121 120 119 119 120 121 121 122 122 122 123 124 126 128 130 133 137 139 140 140 141 141 141 141 141 142 142 141
84 84 85 85 86 87 88 89 91 92 94 96 97 99 100 102 104 105 106 108 110 111 112 113 113 114 114 115 115 115 115 115 115 115 114 114 112 111 110 109 108 108 107 106 106 106 106 106 107 109 111 113 115 118 120 122 123 122 121 120 119 120 122 122 122 122 122 123 123 123 123 124 126 130 133 136 138 139 139 140 140 140 141 142 142
81 82 82 82 82 83 83 84 86 88 90 92 94 95 97 100 101 103 104 106 109 111 113 113 114 115 115 116 116 116 116 117 117 117 116 116 115 114 113 111 110 109 109 108 108 107 107 107 107 108 109 111 113 115 117 120 122 123 123 122 121 121 122 122 122 122 122 123 123 123 122 121 121 123 126 129 132 135 136 137 138 138 138 139 140
77 78 79 79 79 79 80 80 82 84 86 88 89 91 93 95 98 100 102 104 107 110 112 113 114 114 115 116 117 117 117 117 118 118 118 118 118 117 116 115 113 111 111 110 110 109 109 108 107 107 108 110 111 113 115 117 119 121 122 123 123 123 123 122 122 122 123 123 124 123 122 122 121 121 122 123 126 129 131 133 134 134 134 135 135
74 76 76 76 76 76 77 77 78 79 81 83 85 86 88 91 93 96 99 102 105 108 109 110 111 112 114 115 116 116 117 117 117 118 118 119 120 119 118 117 116 114 113 112 111 111 111 110 109 108 108 109 110 111 113 115 117 119 120 121 123 124 125 124 123 123 123 124 124 124 123 123 123 123 122 122 122 124 126 127 129 129 129 130 131
72 73 74 74 75 76 77 77 77 77 78 79 81 83 85 87 89 92 95 99 103 106 107 107 108 109 110 112 114 115 116 117 117 117 117 118 119 120 120 119 118 117 116 115 114 113 113 112 111 110 110 110 110 111 112 114 115 117 118 120 121 123 124 125 125 124 124 124 125 124 124 124 124 124 123 123 122 123 123 124 125 125 125 125 126
70 70 71 72 74 76 76 77 77 77 78 78 78 79 81 82 85 88 91 95 99 102 104 105 106 106 107 108 110 112 114 115 116 117 118 118 118 118 119 119 119 119 118 117 116 115 114 114 114 113 112 112 111 112 112 113 114 115 117 118 119 121 122 124 124 125 126 126 126 126 125 125 125 125 125 124 124 123 124 123 123 123 124 123 123
67 67 69 70 72 73 74 75 75 76 77 77 77 78 78 78 80 83 86 90 94 98 100 101 102 103 104 105 105 107 110 112 113 115 116 117 117 117 117 118 119 119 119 118 118 117 116 116 115 115 115 114 114 113 113 114 114 115 116 117 118 119 120 121 122 123 125 126 128 128 127 127 127 127 126 126 125 125 124 124 124 123 123 123 123
64 65 66 67 68 69 70 71 72 72 73 74 75 76 76 77 78 80 82 85 88 92 95 97 98 99 101 102 103 103 105 107 109 111 112 114 115 116 116 116 116 118 119 119 119 118 118 117 117 117 116 116 116 116 115 115 115 115 116 116 117 118 119 120 120 121 122 124 126 128 128 129 129 129 128 127 126 126 126 125 125 124 124 123 124
62 62 63 63 64 65 66 67 67 68 68 69 71 72 73 74 76 78 80 81 83 86 89 92 94 95 97 98 99 100 102 103 105 107 108 110 112 114 115 115 115 115 116 118 120 120 118 118 118 118 118 118 118 118 117 117 117 117 117 117 117 118 118 118 119 119 120 121 123 125 127 128 129 130 130 129 129 128 128 127 127 126 126 126 125
60 60 59 59 60 61 62 64 64 64 64 64 66 67 69 71 73 75 77 78 79 81 83 86 88 91 92 94 95 96 98 99 101 102 104 106 108 110 112 113 113 113 114 115 117 119 120 119 118 119 119 119 119 119 119 119 119 119 118 118 118 118 118 118 118 118 119 119 120 122 123 125 127 129 130 130 130 130 130 130 129 129 129 129 128
60 59 59 58 57 58 59 60 61 61 60 60 60 62 65 67 69 71 73 75 76 77 78 81 83 85 87 89 91 92 94 95 97 98 100 102 104 106 108 110 111 112 113 114 114 115 117 119 119 119 119 120 120 120 120 120 120 120 120 120 120 119 119 119 118 118 118 118 118 119 120 122 124 126 128 129 130 131 132 132 131 131 132 131 131
59 59 59 58 57 58 58 58 58 58 57 57 57 58 60 63 65 67 69 71 72 73 74 76 78 80 82 84 87 89 90 91 93 94 96 97 99 101 104 106 107 109 111 113 114 113 113 116 118 120 120 120 120 120 121 121 121 121 122 121 121 121 121 120 120 119 118 118 118 118 119 120 121 123 124 126 127 129 131 132 132 133 133 134 134
58 58 58 58 58 58 58 57 57 57 56 56 55 55 56 58 59 61 63 65 67 69 70 72 73 75 77 79 82 84 87 89 90 91 92 92 94 96 99 101 104 106 109 111 112 112 112 113 115 118 119 120 120 121 122 122 122 122 122 122 122 122 122 122 121 121 120 119 119 119 119 119 120 121 122 123 124 126 128 129 131 132 133 134 134
60 60 59 59 59 59 58 58 57 56 56 56 56 56 56 57 57 56 57 59 61 63 66 68 70 71 73 74 76 79 83 86 87 88 88 89 90 92 94 98 101 103 106 108 109 110 111 112 112 114 117 119 120 120 121 122 123 122 122 122 122 122 122 123 123 123 122 121 121 120 120 120 120 120 120 121 122 123 124 126 128 129 131 132 133
58 58 58 58 58 59 59 58 58 57 57 58 57 57 57 58 58 57 57 57 57 58 60 62 64 67 69 71 73 75 78 81 84 86 86 86 87 88 90 94 97 100 103 105 106 107 108 110 111 112 114 116 118 120 121 121 122 123 123 122 122 122 122 122 123 123 124 124 123 123 122 122 121 121 121 121 121 121 122 123 125 126 128 129 130
57 56 56 56 56 57 57 57 56 56 56 57 58 57 57 57 58 58 58 58 58 57 57 57 59 62 65 68 70 72 74 77 80 82 83 83 84 85 87 90 93 96 99 101 102 104 105 107 109 111 112 114 116 118 120 120 121 122 123 123 122 122 122 122 122 123 124 124 125 125 124 123 123 123 123 122 122 122 122 123 123 124 125 126 127
56 55 55 56 55 55 55 55 54 54 54 55 55 55 55 55 55 56 57 57 57 57 56 56 57 58 60 63 66 70 72 74 76 78 79 80 81 82 84 86 88 91 94 96 98 100 102 105 106 108 110 112 113 115 118 119 120 120 121 121 121 121 121 122 122 122 123 124 125 125 125 125 125 125 124 124 123 123 123 123 123 123 124 124 125
56 55 55 55 56 56 55 54 54 53 53 53 53 53 53 53 53 54 55 55 55 55 55 55 56 56 57 59 62 66 70 72 73 74 75 76 77 78 79 81 83 85 88 91 94 96 98 100 102 104 106 109 111 113 114 116 118 119 119 119 120 120 121 121 122 122 123 123 124 124 125 125 126 126 126 126 125 125 125 124 124 123 123 123 123
57 56 55 55 55 55 54 54 54 53 53 53 53 52 52 52 53 53 53 54 53 53 53 53 54 54 55 57 59 62 66 69 71 72 72 72 73 74 74 75 76 79 83 86 89 91 92 95 97 99 101 105 108 110 111 113 115 116 117 117 117 118 119 120 121 122 122 123 123 123 124 124 125 126 126 127 127 126 126 125 124 123 123 123 122
56 55 55 55 54 54 53 52 52 52 52 52 52 52 51 51 52 53 53 53 52 52 52 52 52 53 53 55 56 59 61 64 67 69 69 69 69 69 69 70 71 74 78 81 83 85 87 89 91 92 95 99 103 106 108 110 111 113 114 115 115 116 117 118 120 121 122 122 122 122 123 123 124 124 126 127 127 127 126 125 124 124 124 123 122
56 54 53 54 54 53 52 51 51 51 51 51 50 50 50 50 51 52 53 53 52 51 51 51 51 51 52 53 54 56 58 60 62 64 66 66 65 65 65 66 68 71 73 76 78 80 82 84 85 87 89 92 96 100 104 106 108 109 110 111 113 113 114 115 117 118 120 121 121 121 122 122 122 123 124 125 126 126 125 125 125 125 124 124 123
57 55 54 54 53 53 52 51 50 50 51 50 50 50 48 48 49 50 51 51 51 50 49 49 49 50 50 51 52 54 55 57 59 61 62 62 63 62 62 63 65 68 71 72 74 76 78 79 81 82 83 85 89 94 98 101 104 105 107 109 110 111 112 113 114 116 117 118 119 120 121 121 122 122 123 123 123 124 124 124 125 125 125 125 125
55 54 53 54 54 53 52 51 50 50 51 50 50 50 48 47 47 48 48 49 50 49 49 48 48 48 49 49 50 52 53 54 55 57 58 59 60 60 60 61 63 66 68 70 71 72 74 76 77 78 80 81 83 87 91 95 98 100 103 105 107 108 109 110 112 113 115 116 117 119 120 120 121 121 121 121 121 122 122 123 123 124 125 126 126
55 53 52 53 53 53 52 50 49 49 50 50 50 50 48 47 46 46 47 47 48 48 48 47 47 46 47 48 48 49 51 51 52 54 55 56 57 58 58 59 61 63 65 67 69 70 71 72 73 75 77 78 79 82 85 88 92 95 98 100 103 105 106 107 109 110 112 114 115 116 118 119 119 119 119 119 120 120 121 121 121 122 123 124 124
56 55 53 52 52 53 52 50 48 47 48 48 49 49 49 47 46 45 45 46 46 46 46 46 46 45 45 46 47 48 49 49 50 51 52 53 54 55 56 57 59 61 63 64 65 67 69 70 71 73 74 76 77 79 81 83 86 90 93 95 98 100 103 104 106 109 110 111 112 113 115 116 116 116 117 117 118 118 119 119 119 120 121 121 121
55 54 53 52 51 52 51 50 48 47 47 46 46 48 48 48 46 45 44 44 45 45 45 45 45 45 45 44 45 46 47 48 48 49 50 51 52 53 54 56 57 59 60 61 63 64 66 68 69 71 72 74 76 77 79 80 82 84 87 90 93 95 98 101 103 106 107 108 109 110 112 112 113 114 114 115 116 116 116 116 116 117 118 118 118
55 54 53 52 51 50 50 50 48 47 46 45 45 45 46 47 47 46 44 44 44 44 44 45 45 45 44 44 44 44 45 46 46 47 48 49 50 51 52 54 55 57 58 59 60 62 64 65 67 69 70 72 74 75 76 78 79 81 83 85 87 90 92 95 98 101 104 105 106 107 108 109 110 111 112 112 113 114 115 115 115 115 116 116 116
56 55 53 52 50 49 49 49 48 47 46 45 44 44 44 45 46 46 44 44 43 44 44 44 44 44 44 44 43 43 43 44 45 45 46 47 48 49 50 52 53 55 56 58 59 60 62 63 65 67 68 70 71 73 74 76 77 78 79 81 82 84 86 89 92 95 98 101 102 103 104 105 106 107 108 109 111 112 112 113 113 114 115 115 117
57 56 54 52 51 50 49 49 49 47 46 45 45 44 43 43 44 44 44 43 43 44 44 43 43 43 44 44 43 43 42 43 43 44 44 45 46 47 48 50 51 53 54 56 57 59 60 62 63 64 66 67 69 70 72 73 75 76 77 78 79 80 82 84 86 89 92 94 96 98 99 100 101 103 104 105 107 108 109 110 110 111 113 115 116
59 57 55 53 51 50 49 48 48 48 47 46 46 45 43 42 42 43 43 42 42 42 43 43 42 42 42 43 43 43 42 42 43 43 43 44 45 46 47 48 49 51 52 54 55 57 58 60 61 62 64 65 66 68 69 71 72 73 75 76 77 78 79 80 82 84 87 88 89 91 93 95 96 97 98 100 101 103 104 105 106 107 110 112 113
59 58 56 54 52 50 49 48 48 47 47 47 47 46 44 42 41 42 43 42 41 40 41 43 43 41 41 41 42 42 43 42 42 43 43 43 44 45 46 47 48 49 50 51 53 55 57 58 59 60 61 62 64 65 67 68 70 71 73 74 75 76 77 78 79 81 83 84 85 86 88 89 90 91 92 94 95 96 97 98 99 102 104 106 108
59 58 56 54 52 50 49 48 47 47 46 46 46 46 45 43 41 41 42 42 41 39 39 41 42 41 40 40 40 41 42 42 42 42 42 43 43 44 44 45 47 48 49 50 51 52 54 56 57 58 59 60 62 63 64 66 67 69 71 72 73 74 75 75 77 79 81 82 82 83 84 85 85 86 87 89 90 91 91 92 93 95 98 100 102
59 57 56 54 53 51 50 48 47 47 46 45 45 46 45 43 41 40 41 41 41 40 38 38 39 40 40 40 39 39 40 41 41 42 42 42 43 43 43 44 45 47 48 49 50 51 52 53 55 56 57 59 60 61 62 63 65 67 69 70 71 71 73 74 75 77 79 80 80 81 81 81 82 83 84 85 86 87 87 87 89 90 92 94 95
Wind_Direction
276 275 273 272 269 267 266 264 264 265 266 266 267 266 264 263 262 262 262 263 263 263 263 263 263 262 261 258 255 254 254 252 250 249 248 248 247 247 246 246 244 242 241 240 238 238 237 236 236 236 236 236 236 237 236 236 235 235 235 236 237 238 239 239 239 239 239 240 240 240 240 241 241 242 242 243 243 243 244 246 247 248 249 249 250
277 276 275 274 272 271 269 267 266 266 265 266 267 268 268 267 265 263 262 262 263 263 263 263 263 262 262 260 257 254 253 252 252 250 248 247 247 247 247 246 246 244 242 240 239 238 238 237 236 236 236 236 236 236 236 237 236 236 236 235 236 237 238 238 239 240 240 240 240 240 241 241 242 243 244 244 245 245 245 246 246 247 248 250 250
277 276 275 274 273 272 272 271 270 268 268 267 267 267 268 268 268 266 264 263 262 262 263 263 262 261 261 260 259 256 253 251 251 251 250 248 248 248 247 246 246 245 243 241 240 239 238 238 238 237 236 237 237 236 236 236 237 237 237 236 236 236 237 238 239 239 240 240 241 241 241 242 242 243 244 244 245 245 246 246 247 248 249 250 250
278 277 276 275 275 274 273 273 272 271 270 269 268 268 267 267 268 268 267 266 264 262 262 262 262 261 260 259 258 257 255 252 250 250 250 249 249 248 247 247 246 246 245 243 241 240 239 238 238 238 238 237 237 237 236 236 237 237 238 238 238 238 238 238 239 239 240 241 241 242 242 242 243 244 244 243 244 245 246 247 247 248 248 249 250
278 277 277 276 276 275 274 274 273 272 272 271 270 269 269 268 268 268 267 267 266 264 262 261 261 260 259 258 257 256 256 254 251 249 249 249 249 249 248 247 246 246 245 245 243 241 240 239 238 238 239 238 238 238 237 237 237 237 238 239 239 239 239 239 239 240 240 241 241 242 242 243 243 244 244 244 244 245 246 246 247 247 248 248 249
278 277 276 276 275 275 274 274 273 272 272 271 271 270 269 269 268 267 266 266 265 264 263 261 260 259 259 258 257 256 255 255 253 251 249 248 248 248 248 247 246 246 245 245 244 243 241 240 238 238 238 239 239 238 238 237 237 237 238 238 238 239 239 240 240 241 241 241 241 241 242 242 243 243 244 245 245 245 246 246 246 247 247 247 248
277 276 276 275 274 274 273 273 272 272 271 270 270 269 269 269 268 267 266 265 265 264 263 262 261 259 259 258 257 256 255 254 254 252 250 248 247 247 247 247 247 246 246 245 245 244 243 242 240 238 238 238 239 239 239 238 237 237 238 238 238 238 239 240 240 241 241 242 242 241 241 242 242 243 243 244 244 245 246 246 247 247 247 247 248
278 277 276 275 275 274 273 272 272 271 271 270 270 269 269 268 268 268 267 266 265 265 264 263 262 261 259 258 257 256 255 254 254 252 251 249 248 247 246 246 247 246 246 246 245 244 244 243 242 240 239 238 239 239 240 239 238 238 238 238 238 238 238 239 240 240 241 242 242 242 242 242 242 243 243 243 244 244 245 246 246 247 247 247 248
278 277 276 275 274 273 272 272 271 271 270 269 269 269 268 268 268 268 267 267 266 265 264 264 263 262 260 259 258 257 256 254 253 252 251 249 248 247 246 246 246 246 246 246 246 245 245 244 243 242 241 240 239 239 240 240 240 239 239 239 239 239 239 239 239 240 241 241 242 242 242 242 242 243 243 244 244 244 244 245 245 246 246 247 247
278 277 275 274 273 272 271 270 269 269 268 268 267 267 267 266 266 266 266 266 266 266 265 264 263 262 261 260 259 257 256 255 253 252 251 249 248 247 246 246 246 246 246 246 246 245 245 245 244 243 242 241 240 240 239 240 241 240 240 240 240 240 240 239 239 240 241 241 242 242 242 242 243 243 243 244 244 244 244 245 245 246 246 247 247
276 275 274 273 272 271 270 269 268 267 267 266 266 265 265 265 264 264 264 264 265 265 265 264 263 262 261 260 259 258 256 255 253 252 251 250 248 247 247 246 246 245 245 246 246 245 245 245 245 244 243 242 241 241 240 240 240 240 240 241 241 241 241 241 240 240 240 241 242 242 243 243 242 243 243 244 244 244 245 245 246 246 247 247 248
272 271 271 270 270 269 269 268 268 267 267 266 265 265 264 264 263 263 263 263 263 263 263 264 263 263 262 261 260 258 257 255 254 252 251 250 249 248 247 247 246 246 245 246 246 246 246 245 245 245 244 243 242 242 241 241 240 240 240 241 241 242 242 242 242 241 241 241 242 242 243 243 243 243 243 244 244 245 245 245 246 247 247 247 248
269 268 268 268 268 269 269 268 268 268 268 267 267 266 265 265 264 264 263 263 262 262 262 262 262 262 262 261 260 259 257 256 254 253 251 250 250 249 249 248 247 246 246 246 246 246 246 246 246 245 245 244 242 242 242 242 241 240 240 240 241 242 242 243 243 242 242 242 242 243 243 243 243 243 243 244 244 245 245 245 246 246 247 247 248
272 270 269 268 268 268 268 268 269 269 269 269 268 268 267 267 266 265 265 264 263 262 262 262 261 261 261 261 261 259 258 257 255 254 253 252 251 250 250 249 248 248 247 246 246 246 246 246 246 246 246 245 244 242 242 242 242 241 240 240 240 241 242 243 243 243 243 243 243 243 244 244 244 244 243 244 244 245 245 246 246 246 246 247 247
276 274 272 270 268 267 266 266 266 266 266 267 267 267 267 267 266 266 265 265 264 263 262 262 261 261 260 260 260 260 259 258 256 255 255 254 253 252 251 250 249 249 248 247 247 247 246 246 246 246 246 246 245 244 243 242 242 242 241 241 240 240 241 242 243 244 244 244 244 244 244 244 245 245 244 244 244 245 246 246 247 247 247 247 248
276 274 273 271 270 268 266 265 263 263 263 263 263 264 264 264 264 264 264 263 263 263 262 262 261 261 260 260 260 260 259 259 258 256 255 255 254 254 253 252 251 250 249 248 248 247 247 247 246 246 246 246 246 246 245 243 242 242 242 241 241 241 241 241 242 243 243 244 244 245 245 245 245 245 245 245 245 245 246 246 247 247 248 248 248
275 273 272 272 271 270 269 267 265 264 262 262 261 261 260 260 260 260 260 260 260 260 260 260 260 260 259 259 258 258 258 259 258 257 256 255 255 254 254 253 252 251 250 249 248 248 248 248 247 246 246 246 246 246 246 245 244 243 242 241 241 241 241 241 241 242 242 243 244 245 245 245 246 246 246 246 246 246 246 247 247 248 248 248 249
276 274 273 272 271 271 270 269 268 266 265 263 262 261 260 259 258 258 258 258 258 257 257 257 257 257 257 257 257 257 257 257 257 257 257 256 255 254 254 253 253 252 251 250 249 248 248 248 247 247 247 246 246 246 246 246 246 245 244 242 241 241 241 242 242 242 242 243 243 244 244 245 246 246 246 246 246 247 247 247 247 248 249 249 249
280 278 276 275 273 272 271 270 269 268 266 265 264 263 262 260 259 258 257 257 256 256 255 255 255 255 255 255 255 255 255 255 255 255 255 255 255 254 253 252 252 252 252 251 250 249 248 247 247 247 247 247 247 246 247 247 247 247 246 244 243 242 242 242 242 242 242 243 243 243 243 244 245 247 247 247 247 247 247 247 247 248 248 249 249
281 280 279 278 276 274 272 271 269 268 266 265 264 263 263 262 261 260 259 257 257 256 255 255 254 254 253 253 253 253 253 253 253 254 253 253 253 253 253 252 251 251 251 251 251 250 249 248 247 246 246 247 247 247 247 247 247 247 247 246 245 244 243 242 242 242 243 243 243 243 243 243 244 245 247 248 248 247 247 247 247 247 248 249 249
282 281 279 278 276 275 273 271 270 268 267 265 264 263 262 262 261 261 260 259 258 258 257 256 256 255 254 253 253 253 252 252 252 252 252 252 252 252 252 251 250 250 250 250 250 250 250 248 247 246 246 246 246 246 246 247 247 247 247 247 247 246 245 244 243 243 243 243 243 243 243 243 243 244 245 247 248 248 248 248 247 247 248 248 249
284 283 281 280 279 277 275 272 270 268 267 266 265 264 262 261 260 259 259 259 258 258 258 257 257 256 256 256 255 254 254 253 252 251 251 251 251 251 251 250 250 249 249 248 248 249 249 249 248 247 246 245 245 245 246 246 247 247 246 246 246 247 246 246 245 244 244 243 244 244 243 243 243 243 243 244 246 248 249 249 248 248 247 248 248
286 285 284 283 281 279 276 274 272 270 267 265 263 262 261 260 259 258 258 257 258 258 258 257 257 256 255 255 256 256 256 255 254 253 252 251 251 251 251 250 250 249 248 247 247 247 247 248 248 248 247 246 245 245 245 245 246 246 247 246 246 246 246 246 246 246 245 245 245 244 244 244 244 244 243 243 244 246 247 249 249 249 248 248 248
286 285 283 281 279 278 277 276 275 273 271 269 266 264 262 261 260 259 258 258 258 258 258 258 258 257 255 254 254 254 254 255 255 255 255 253 252 251 251 250 250 249 248 247 247 246 245 245 246 247 247 246 246 245 245 245 245 246 246 247 247 246 246 246 246 246 246 246 246 245 245 245 245 245 244 244 244 245 246 247 248 249 249 249 248
287 284 282 279 278 277 277 276 275 274 274 273 271 269 267 264 262 260 259 258 259 259 259 259 259 259 258 257 255 254 253 253 253 253 254 255 254 253 252 251 251 250 249 248 247 246 245 245 244 244 245 245 245 245 245 245 245 245 246 246 247 247 247 247 246 246 246 246 246 246 246 246 246 246 245 245 245 244 245 246 247 248 249 249 249
286 284 282 281 280 279 278 276 275 275 274 273 272 271 269 267 265 262 259 258 257 258 259 260 260 259 259 259 258 257 255 254 253 253 252 253 254 254 254 253 252 251 251 250 249 247 246 245 245 244 244 244 244 245 245 245 244 245 245 245 246 247 247 247 247 246 246 246 246 247 247 247 247 247 247 246 246 246 245 246 246 247 247 248 249
287 286 285 283 282 281 279 278 276 275 274 273 272 271 270 268 266 265 263 261 259 258 258 259 259 259 259 259 259 258 257 256 255 254 253 252 252 252 253 253 253 252 251 251 251 250 248 246 245 245 244 244 244 244 244 244 244 244 244 245 245 246 247 247 247 247 247 246 246 247 247 247 247 248 248 248 247 247 247 246 246 247 247 247 247
291 289 287 285 283 282 280 279 278 276 274 273 272 271 270 269 268 266 265 264 262 261 260 259 259 259 259 259 258 258 257 257 256 255 254 253 252 252 252 252 252 251 251 251 250 251 250 249 247 246 245 245 244 244 243 243 244 244 244 244 244 245 246 246 247 247 247 247 247 247 247 247 248 248 248 248 248 248 248 248 248 247 247 247 247
297 295 292 289 287 285 283 281 280 278 276 275 273 271 270 269 268 267 266 265 264 263 262 261 260 259 259 259 259 258 257 256 256 255 254 253 252 252 251 251 251 251 250 250 249 249 249 250 250 248 246 246 245 245 244 244 243 243 244 244 244 245 245 246 246 247 247 248 247 247 247 247 248 248 248 249 249 249 249 249 249 249 249 249 248
299 298 296 294 292 290 287 285 284 282 280 277 275 272 270 269 268 268 267 267 266 265 264 262 261 260 259 259 259 259 258 257 256 255 255 254 253 252 251 251 251 250 250 249 249 248 247 248 249 249 249 247 246 246 245 245 244 244 243 243 244 244 245 245 245 246 247 247 248 248 248 248 248 248 248 249 249 249 250 250 250 249 249 249 250
302 300 299 297 295 293 291 290 288 286 285 282 279 276 273 270 268 267 267 266 266 266 265 264 262 261 259 259 258 258 258 258 257 256 255 254 253 252 251 251 251 250 249 249 249 248 247 246 246 248 249 249 248 247 246 246 246 245 245 244 244 243 244 245 245 246 246 246 247 248 248 248 248 248 248 249 249 249 250 250 250 250 250 250 250
306 304 302 301 299 297 295 294 292 291 289 287 285 283 280 277 274 271 268 266 265 265 264 264 263 262 260 259 258 257 257 257 257 256 255 254 253 251 251 250 249 249 249 249 248 248 247 247 246 245 246 247 248 248 247 247 247 246 246 246 245 244 244 244 244 245 246 246 246 247 247 248 249 249 249 249 249 249 250 250 250 251 251 251 251
306 304 303 302 300 299 297 296 295 294 293 290 289 287 285 283 281 279 275 272 268 266 264 263 263 262 262 260 258 257 256 256 256 256 255 254 253 252 250 250 249 249 248 248 248 247 247 246 246 245 244 245 246 247 247 247 247 247 247 246 246 246 245 245 244 244 245 245 246 246 247 247 248 249 249 249 250 250 250 250 250 251 251 251 252
306 305 303 301 300 298 297 296 295 294 292 290 289 287 286 284 283 282 280 277 275 272 268 265 263 262 261 261 260 259 257 256 256 256 256 255 254 252 251 250 249 249 249 248 248 248 247 246 246 246 245 244 244 245 246 246 247 247 247 247 247 247 246 246 246 245 245 245 245 246 246 247 247 248 249 249 250 250 250 250 250 250 251 251 251
308 307 305 302 301 299 297 296 295 293 291 289 288 287 286 284 283 281 279 278 276 275 273 270 267 264 261 260 260 260 259 258 257 257 257 256 255 254 252 251 250 250 250 250 249 249 248 247 246 246 245 245 245 244 244 245 245 246 246 247 247 247 247 247 247 247 246 245 245 245 246 246 247 247 248 249 249 250 250 250 250 251 251 251 251
311 309 307 305 303 301 300 299 297 295 294 292 290 289 288 287 285 283 281 280 278 276 274 272 270 268 265 261 259 259 260 260 259 258 257 257 257 256 254 253 253 252 251 251 251 250 249 249 248 247 246 246 246 245 245 245 245 245 245 246 246 247 247 247 247 247 247 247 247 246 246 246 246 247 248 248 249 249 250 250 251 251 251 252 252
312 310 308 306 304 302 301 300 299 298 297 295 294 292 291 290 289 286 284 283 281 279 277 274 272 270 268 265 262 259 259 260 260 260 259 258 258 257 256 255 254 253 252 252 252 252 251 251 250 249 247 247 247 247 247 246 246 246 246 245 245 245 246 247 247 248 248 248 248 248 247 247 247 247 247 248 248 249 250 250 251 252 252 253 253
312 311 309 307 305 303 302 301 299 298 297 296 295 294 294 293 291 289 287 285 283 281 279 277 275 273 270 267 265 262 260 259 259 260 260 259 258 257 257 256 255 253 253 252 252 252 252 252 251 250 249 248 248 248 248 248 247 247 247 246 246 245 245 245 246 247 247 248 248 248 248 248 248 248 248 248 248 249 250 250 251 252 253 253 254
313 312 310 308 306 305 304 302 301 299 298 297 295 294 293 292 291 290 289 287 285 282 280 278 277 275 272 270 267 265 262 260 259 259 259 260 259 257 256 255 254 253 253 252 252 251 251 251 251 251 250 249 248 248 248 248 249 248 248 248 247 247 246 246 245 246 246 247 248 248 249 249 249 249 249 249 249 250 250 250 251 252 252 253 254
315 314 312 309 308 307 306 305 303 302 300 299 297 295 293 292 290 289 289 288 286 284 282 280 278 276 274 272 269 267 264 262 260 259 258 259 258 257 255 253 252 252 252 252 251 250 250 250 250 250 249 249 248 248 248 249 249 249 249 249 249 248 248 247 247 246 246 246 247 247 248 248 248 249 249 249 250 250 250 250 251 251 252 252 253
316 315 314 312 310 309 308 307 306 304 302 300 299 297 295 293 291 290 289 288 287 286 284 281 279 277 275 273 271 268 266 263 261 260 258 257 257 256 255 253 251 251 251 252 251 251 250 250 249 249 248 248 247 247 247 248 248 249 249 249 249 249 249 249 248 248 247 247 247 247 247 248 248 248 249 249 249 250 250 250 250 251 251 251 252
317 316 315 313 311 310 308 307 306 305 303 302 300 298 297 295 293 291 290 289 288 286 285 283 281 279 276 274 272 270 268 266 263 261 259 257 256 255 254 253 252 251 251 251 251 251 251 250 250 249 248 248 247 246 246 246 247 247 248 248 249 249 250 250 250 249 249 248 248 248 248 249 249 249 249 249 249 249 250 250 250 250 250 251 251
319 318 317 315 313 311 310 309 307 306 304 302 301 300 298 297 295 293 291 290 289 287 286 284 282 280 278 276 274 271 269 267 265 263 261 259 257 255 253 252 251 251 251 251 251 251 251 251 250 249 249 248 247 247 246 245 245 245 246 246 247 248 248 249 249 250 250 249 249 249 250 250 250 250 250 250 250 250 250 250 251 251 251 251 251
320 319 318 317 315 313 311 310 309 307 305 303 302 300 299 298 297 295 293 292 290 289 288 286 284 282 279 277 275 273 271 269 267 265 263 261 259 257 255 253 252 251 250 250 250 250 250 250 250 250 249 249 248 248 247 246 246 245 245 245 246 246 247 247 248 249 249 250 250 250 250 250 250 251 251 251 251 252 252 252 252 252 252 253 253
321 320 319 318 316 314 312 311 310 309 307 305 303 301 300 299 298 297 295 293 292 291 289 288 286 284 281 279 277 274 272 270 268 266 264 263 261 259 257 255 253 252 251 250 249 249 249 249 249 249 249 249 249 249 248 248 247 247 246 246 246 246 246 247 247 248 249 249 250 250 250 250 250 251 251 251 252 252 252 252 253 253 253 254 254
323 322 321 320 318 316 314 313 312 311 309 307 305 303 301 299 298 297 296 295 293 291 290 288 287 285 283 281 279 276 274 272 269 267 265 264 262 260 259 257 255 253 252 251 249 249 248 248 248 248 248 248 249 249 248 248 248 248 247 247 247 247 247 247 247 247 248 249 249 250 250 251 251 251 251 251 251 252 252 252 252 253 253 253 254
325 324 323 322 321 319 317 315 314 313 312 310 308 305 303 301 299 298 297 295 294 292 290 288 287 286 285 283 280 278 276 273 271 269 267 265 263 261 260 258 257 255 254 252 251 250 248 248 247 247 247 248 248 248 248 248 249 248 248 248 248 247 247 247 247 248 248 249 249 250 250 251 251 251 251 251 251 251 252 252 252 252 253 253 253
326 325 325 324 322 320 318 317 316 315 313 312 309 307 305 303 301 299 297 296 295 293 292 290 288 286 284 283 281 279 277 275 272 270 268 266 264 263 261 259 258 256 255 254 253 251 250 249 248 247 247 247 247 248 248 249 249 249 249 249 248 248 248 247 247 248 248 249 249 249 250 250 251 251 251 251 251 251 251 251 251 252 252 252 252
327 326 325 324 323 321 320 318 317 316 315 313 311 309 307 306 304 301 299 297 296 294 292 291 289 287 285 283 282 280 278 276 274 271 269 267 265 264 262 261 260 258 256 255 254 253 252 251 250 249 248 247 247 247 247 248 248 249 249 249 249 248 248 248 248 248 248 249 248 249 249 250 250 251 251 251 252 251 251 251 251 251 251 252 252
327 326 325 324 323 322 320 320 319 318 317 315 313 311 309 308 307 304 302 300 298 296 294 292 291 289 287 285 283 281 279 277 275 273 271 268 266 264 263 262 261 260 259 257 256 254 253 253 252 251 250 250 249 248 247 248 248 248 248 249 249 249 249 249 249 249 249 249 249 249 249 249 250 250 250 251 251 251 251 251 251 251 251 251 252
328 327 326 325 324 323 322 321 321 320 318 316 314 312 311 310 309 307 305 303 301 300 297 294 293 291 290 287 285 282 281 279 277 274 272 270 268 266 263 262 261 260 260 259 257 256 255 254 253 252 252 251 250 250 249 248 248 248 248 248 248 249 249 249 249 249 249 250 250 250 250 250 250 250 250 251 251 251 251 251 251 251 251 251 251